Location: Unspecified
(43.8044°N, 11.0278°E)
Time: 21:48:40
(UTC+02:00)

Cosmos 1674 - Visible Passes

Search period start: 25 April 2015 00:00
Search period end: 05 May 2015 00:00
Orbit: 508 x 533 km, 82.5° (Epoch: 25 April)

Date Brightness Start Highest point End Pass type
(mag) Time Alt. Az. Time Alt. Az. Time Alt. Az.
29 Apr 4.0 05:30:31 10° SSE 05:34:09 43° E 05:37:51 10° NNE visible
30 Apr 4.3 05:17:02 10° SSE 05:20:33 37° E 05:24:09 10° NNE visible
01 May 4.6 05:03:33 10° SSE 05:06:57 32° E 05:10:26 10° NNE visible
02 May 4.8 04:50:05 10° SSE 04:53:21 27° E 04:56:41 10° NNE visible
03 May 5.0 04:36:40 10° SE 04:39:44 24° E 04:42:54 10° NE visible
04 May 5.2 04:23:17 10° SE 04:26:07 20° E 04:29:04 10° NE visible
